STARLINK-32782, 62821

Orbit data source: Space-Track

STARLINK-32782, 62821 is a payload satellite owned by SpaceX/Seattle (US) in LEO that was launched on Fri, 24 Jan 2025 UTC via an FALCON 9 launch vehicle from the Air Force Western Test Range (AFWTR). Payloads include a variety of satellites, spacecraft, and rockets equipped with specific instruments for various scientific and technological missions. These include communications satellites like Starlink; space stations such as the ISS; scientific satellites like the Hubble; Earth observation satellites from companies like Planet Labs, Umbra, and HawkEye 360; GPS; miniature CubeSats for education and research; and military/defense satellites.

Loading next visibility...
STARLINK-32782 details
Identifier
62821, 2025-018R
Orbit
LEO
Last TLE update8 hours ago
Origin
Flag of USSpaceX/Seattle (US)
ManufacturerSpaceX/Seattle
MissionOperational spacecraft
Bus & MotorSTARLINK V2M, Unknown motor
Mass730 kg wet, ~700 kg dry
Launch date (UTC)
2025-01-24 (3 weeks ago)
Launch vehicle
FALCON 9
Launch site
Air Force Western Test Range (AFWTR)
Object type
Payload
Rocket body
Debris
Shape & HBRUnknown
Radar Cross SectionLarge (>1 m²)

Expand to show TLE details & history

TLE from 8 hours ago
0 STARLINK-32782
1 62821U 25018R   25047.16668981 -.01597386  00000-0 -25351-1 0  9996
2 62821  53.1589 312.4875 0000716  81.1315 287.3265 15.55653578  4754
Epoch: 2025-02-16T04:00Z
Definitive object data (Epoch: 2025-02-16T04:00:01.999Z)
Latitude6.71519°
Longitude111.10805°
Altitude400.396 km
Speed7.672 km/s
True Right ascension21h 10m 04s
True Declination6° 40' 24"
Sunlit
Object was in daylight at TLE epoch
Visualization TLE readout
Latitude48.21861°
Longitude160.96696°
Altitude408.442 km
Speed7.672 km/s
Apparent Right ascension01h 39m 47s
Apparent Declination6° 06' 59"
Sunlit
Object is in daylight
Visualization observer readout
Local Sidereal Time14:44:37
Azimuth21.786° NNE
Elevation-41.601°
Doppler factor1
Orbital elements
Apogee altitude400.998 km
Perigee altitude400.027 km
Semi-major axis6,778.65 km
Eccentricity0.0000716
Inclination53.1589°
RAAN312.4875°
Arg. of periapsis81.1315°
True anomaly287.31867°
Mean anomaly287.3265°
Eccentric anomaly287.32258°
Mean motion3.88891 °/min
BSTAR-0.025351
Orbital period92.57 mins
Loading maneuver chart data...
Loading historical data...
Loading historical data...
Loading historical data...
Loading historical data...
Loading historical data...
Loading historical data...
Loading historical data...

STARLINK-32782 Visibility forecast

Observer location: undefined°, undefined

Span
Click to sort rows by Start time (UTC) header in descending order
Start Az.
Max El. time (UTC)
Max El. Az.
Max El.
End time (UTC)
End Az.
5 mins2025-02-16 19:33:10.384Z187.143° SSW2025-02-16 19:35:10.384Z146.652° SSE22.911°2025-02-16 19:38:10.384Z75.299° E
4 mins2025-02-16 21:10:10.384Z276.457° WNW2025-02-16 21:12:10.384Z336.955° NNW26.922°2025-02-16 21:14:10.384Z25.879° NE
4 mins2025-02-17 03:39:10.384Z281.899° WNW2025-02-17 03:41:10.384Z211.107° SW30.78°2025-02-17 03:43:10.384Z162.443° S
|